TimeEDT,TemperatureF,Dew PointF,Humidity,Sea Level PressureIn,VisibilityMPH,Wind Direction,Wind SpeedMPH,Gust SpeedMPH,PrecipitationIn,Events,Conditions,WindDirDegrees,DateUTC
12:27 AM,42.8,39.2,87,29.81,1.5,East,4.6,-,N/A,,Partly Cloudy,90,2012-10-19 04:27:00
12:30 AM,42.8,39.2,87,29.81,0.8,East,4.6,-,N/A,,Mist,90,2012-10-19 04:30:00
1:02 AM,42.8,39.2,87,29.82,1.2,SSE,3.5,-,N/A,,Partly Cloudy,150,2012-10-19 05:02:00
1:07 AM,42.8,41.0,93,29.82,3.0,Calm,Calm,-,N/A,,Partly Cloudy,0,2012-10-19 05:07:00
1:56 AM,43.0,41.0,93,29.82,10.0,ESE,8.1,-,N/A,,Clear,110,2012-10-19 05:56:00
2:29 AM,42.8,39.2,87,29.80,1.5,East,4.6,-,N/A,,Partly Cloudy,90,2012-10-19 06:29:00
2:31 AM,41.0,39.2,93,29.80,0.8,East,4.6,-,N/A,,Mist,90,2012-10-19 06:31:00
2:41 AM,41.0,39.2,93,29.79,0.2,ENE,5.8,-,N/A,Fog,Fog,70,2012-10-19 06:41:00
2:56 AM,39.9,39.0,97,29.80,0.2,East,3.5,-,N/A,Fog,Fog,90,2012-10-19 06:56:00
3:12 AM,42.8,41.0,93,29.80,1.0,ESE,5.8,-,N/A,,Mist,110,2012-10-19 07:12:00
3:16 AM,42.8,42.8,100,29.80,8.0,East,6.9,-,N/A,,Scattered Clouds,100,2012-10-19 07:16:00
3:56 AM,43.0,42.1,97,29.80,9.0,SE,3.5,-,N/A,,Overcast,130,2012-10-19 07:56:00
4:05 AM,42.8,41.0,93,29.79,1.8,East,5.8,-,N/A,,Overcast,80,2012-10-19 08:05:00
4:09 AM,41.0,39.2,93,29.78,0.8,East,5.8,-,N/A,,Overcast,90,2012-10-19 08:09:00
4:23 AM,41.0,39.2,93,29.78,0.2,East,6.9,-,N/A,Fog,Fog,90,2012-10-19 08:23:00
4:56 AM,41.0,39.9,96,29.78,0.2,ESE,3.5,-,N/A,Fog,Fog,110,2012-10-19 08:56:00
5:07 AM,41.0,39.2,93,29.77,0.5,Calm,Calm,-,N/A,Fog,Fog,0,2012-10-19 09:07:00
5:19 AM,41.0,39.2,93,29.78,2.0,East,4.6,-,N/A,,Mostly Cloudy,100,2012-10-19 09:19:00
5:43 AM,41.0,39.2,93,29.76,1.5,East,4.6,-,N/A,,Mostly Cloudy,80,2012-10-19 09:43:00
5:46 AM,41.0,39.2,93,29.77,0.8,East,4.6,-,N/A,,Mostly Cloudy,80,2012-10-19 09:46:00
5:56 AM,41.0,39.9,96,29.78,0.5,ESE,3.5,-,N/A,Fog,Fog,110,2012-10-19 09:56:00
6:03 AM,42.8,41.0,93,29.77,1.0,East,3.5,-,N/A,,Mostly Cloudy,100,2012-10-19 10:03:00
6:15 AM,41.0,39.2,93,29.76,2.5,East,5.8,-,N/A,,Overcast,90,2012-10-19 10:15:00
6:22 AM,41.0,39.2,93,29.76,3.0,East,5.8,-,N/A,,Overcast,90,2012-10-19 10:22:00
6:24 AM,41.0,39.2,93,29.76,1.8,East,6.9,-,N/A,,Overcast,80,2012-10-19 10:24:00
6:30 AM,39.2,39.2,100,29.75,0.5,East,5.8,-,N/A,Fog,Fog,90,2012-10-19 10:30:00
6:46 AM,41.0,41.0,100,29.76,2.0,Calm,Calm,-,N/A,,Overcast,0,2012-10-19 10:46:00
6:52 AM,41.0,39.2,93,29.76,6.0,SE,3.5,-,N/A,,Overcast,130,2012-10-19 10:52:00
6:56 AM,42.1,39.9,92,29.78,8.0,SE,3.5,-,N/A,,Overcast,130,2012-10-19 10:56:00
7:56 AM,44.1,43.0,96,29.76,10.0,SE,6.9,-,0.04,,Mostly Cloudy,130,2012-10-19 11:56:00
8:56 AM,45.0,44.1,97,29.77,10.0,SE,5.8,-,N/A,,Scattered Clouds,130,2012-10-19 12:56:00
9:15 AM,46.4,44.6,93,29.76,10.0,SE,4.6,-,N/A,,Mostly Cloudy,130,2012-10-19 13:15:00
9:56 AM,48.9,46.0,90,29.76,10.0,Calm,Calm,-,N/A,,Scattered Clouds,0,2012-10-19 13:56:00
10:56 AM,53.1,46.9,80,29.75,10.0,SSE,5.8,-,N/A,,Scattered Clouds,150,2012-10-19 14:56:00
11:56 AM,57.9,44.1,60,29.73,10.0,Variable,4.6,-,N/A,,Clear,0,2012-10-19 15:56:00
12:56 PM,61.0,39.0,44,29.69,10.0,SW,8.1,-,N/A,,Clear,220,2012-10-19 16:56:00
1:56 PM,61.0,33.1,35,29.66,10.0,Variable,5.8,-,N/A,,Clear,0,2012-10-19 17:56:00
3:56 PM,64.0,32.0,30,29.62,10.0,Variable,5.8,-,N/A,,Mostly Cloudy,0,2012-10-19 19:56:00
5:56 PM,59.0,33.1,38,29.62,10.0,Calm,Calm,-,N/A,,Partly Cloudy,0,2012-10-19 21:56:00
6:56 PM,54.0,35.1,49,29.63,10.0,East,4.6,-,N/A,,Scattered Clouds,100,2012-10-19 22:56:00
7:56 PM,55.9,34.0,44,29.63,10.0,Calm,Calm,-,N/A,,Mostly Cloudy,0,2012-10-19 23:56:00
8:56 PM,55.0,33.1,43,29.64,10.0,WSW,3.5,-,N/A,,Overcast,240,2012-10-20 00:56:00
10:56 PM,54.0,36.0,51,29.65,10.0,SW,9.2,-,N/A,,Mostly Cloudy,230,2012-10-20 02:56:00
11:56 PM,52.0,36.0,54,29.67,10.0,SW,18.4,26.5,N/A,,Mostly Cloudy,230,2012-10-20 03:56:00